Location: Lake_James_State_Park
(35.7270°N, 81.9020°W)
Time: 23:38:20
(UTC-04:00)

Daily predictions for brighter satellites

Satellite Brightness Start Highest point End
(mag) Time Altitude Azimuth Time Altitude Azimuth Time Altitude Azimuth
Cosmos 1980 3.9 21:12:56 10° NNW 21:18:38 76° WSW 21:24:17 10° SSE
Cosmos 1727 Rocket 4.1 21:13:31 10° S 21:19:44 66° E 21:26:02 10° NNE
Cosmos 2098 Rocket 4.5 21:13:30 10° N 21:21:08 84° E 21:28:22 10° S
Aureole 2 Rocket 3.7 21:22:24 10° NNW 21:26:16 46° WSW 21:29:51 10° S
Cosmos 2237 Rocket 2.5 21:22:50 10° NNW 21:28:25 68° WSW 21:33:59 10° S
Cosmos 1939 Rocket 3.0 21:25:43 10° SSE 21:29:38 59° ENE 21:33:38 10° N
Cosmos 1340 Rocket 2.8 21:27:15 10° S 21:31:15 77° E 21:35:19 10° NNE
SJ-11-01 4.4 21:28:06 10° SSE 21:32:47 66° ENE 21:37:30 10° N
CZ-4B DEB 3.3 21:30:53 10° SE 21:33:36 37° ENE 21:36:23 10° N
Cosmos 2221 3.2 21:30:25 10° N 21:34:33 39° E 21:38:33 11° SSE
Envisat 3.0 21:29:36 10° SSE 21:34:41 89° W 21:39:48 10° NNW
Tiangong 1 3.3 21:35:08 10° WNW 21:37:22 21° N 21:39:35 10° NE
Cosmos 2227 Rocket 4.2 21:35:04 10° SW 21:40:07 33° WNW 21:45:12 10° N
Meteor 1-29 2.9 21:36:48 10° NNE 21:40:13 65° ESE 21:43:38 10° S
Cosmos 1140 Rocket 4.4 21:35:20 10° SSW 21:40:22 53° WNW 21:45:24 10° N
Cosmos 1674 3.1 21:38:44 10° SSE 21:42:17 41° E 21:45:50 10° NNE
Okean 3 Rocket 3.6 21:41:40 10° S 21:46:08 70° E 21:50:36 10° NNE
ARGOS 4.4 21:42:43 12° ESE 21:46:36 27° ENE 21:51:02 10° NNE
SAR-Lupe-4 3.6 21:43:39 12° SSE 21:46:54 62° ENE 21:50:27 10° N
In-Cosmos 22 4.5 21:41:38 10° SSW 21:47:18 75° W 21:53:05 10° N
CZ-3B R/B 3.2 21:45:34 10° SSW 21:48:01 71° SE 21:54:48 10° NE
GPS 2-05 Rocket1 3.5 21:47:23 10° SW 21:50:03 27° SSE 21:51:24 19° ESE
SPOT 5 4.3 21:47:02 13° ESE 21:50:07 24° ENE 21:54:05 10° NNE
Lacrosse 5 3.5 21:47:02 10° NNW 21:51:05 23° NE 21:55:07 10° E
SL-16 R/B 2.2 21:47:47 10° NNW 21:53:28 80° ENE 21:58:21 14° SSE
Cosmos 1908 3.6 21:50:01 10° N 21:53:45 45° E 21:56:19 18° SSE
USA 32 4.3 21:50:32 10° S 21:55:45 72° W 22:01:00 10° N
Cosmos 1570 Rocket 4.1 21:51:53 10° NNW 21:57:10 66° ENE 22:01:16 17° SSE
Cosmos 1766 Rocket 4.0 21:54:51 14° SSE 21:58:16 42° E 22:02:22 10° NNE
Atlas Centaur 2 2.2 21:55:52 10° WSW 21:59:00 26° SSW 22:00:27 20° SSE
KORONAS-FOTON 4.1 21:56:38 15° SSE 21:59:29 44° E 22:03:07 10° NNE
OAO 1 Rocket 4.4 21:59:20 10° WSW 22:04:42 80° S 22:10:04 10° E
Cosmos 1242 Rocket 2.7 22:01:29 10° N 22:05:10 58° E 22:07:16 23° SSE
SAR-Lupe-1 4.1 22:03:34 17° S 22:06:18 84° WSW 22:09:55 10° NNW
USA 245 4.3 22:07:27 22° ESE 22:08:40 27° ENE 22:12:04 10° N
Helios 1B rocket 3.8 22:05:44 10° N 22:09:38 40° WNW 22:13:29 10° SW
Cosmos 1867 4.4 22:08:54 10° SW 22:14:13 55° WNW 22:19:35 10° NNE
Resurs 01 Rocket 4.4 22:12:48 10° WSW 22:14:58 13° W 22:17:08 10° WNW
Delta 2 Rocket 4.2 22:09:50 10° SW 22:15:20 53° SSE 22:20:58 10° E
Helios 1A 4.3 22:12:14 10° SSW 22:16:04 37° W 22:19:55 10° NNW
Milstar 3 Cent rocket 3.9 22:09:43 10° WSW 22:16:26 44° S 22:25:01 20° SE
USA 234 3.2 22:11:57 10° NE 22:18:28 67° SE 22:24:57 10° SW
NOAA 11 4.1 22:16:47 20° SSE 22:20:40 81° ENE 22:26:08 10° N
Cosmos 2228 Rocket 4.3 22:16:45 10° NNE 22:20:44 28° ENE 22:22:04 24° ESE
Cosmos 468 Rocket 4.3 22:18:44 10° N 22:23:41 48° ENE 22:26:04 28° SE
SL-08 RB Rocket 4.2 22:21:53 28° SE 22:23:50 43° ENE 22:28:11 10° N
ERS-1 Rocket 3.0 22:21:46 19° S 22:25:23 80° WSW 22:30:27 10° NNW
Terra 3.6 22:24:00 15° E 22:25:26 17° ENE 22:28:29 10° NNE
Cosmos 2227 4.3 22:20:42 10° SSW 22:26:26 83° WNW 22:32:11 10° NNE
Cosmos 1459 Rocket 4.0 22:21:10 10° N 22:27:28 85° W 22:32:18 18° S
H-2A ROCKET BODY 3.0 22:26:57 10° SSW 22:30:12 29° SE 22:39:23 10° E
Sakura Rocket 4.4 22:24:23 10° WSW 22:32:19 48° S 22:35:22 28° SE
Cosmos 2100 Rocket 4.2 22:27:02 10° N 22:33:19 71° W 22:38:36 15° S
Nimbus 7 Rocket 4.5 22:27:52 10° NNE 22:33:47 58° ESE 22:37:30 23° S
Cosmos 332 Rocket 4.2 22:30:30 10° N 22:35:17 50° ENE 22:37:02 34° ESE
MetOp-B 4.1 22:35:14 25° S 22:38:29 81° WSW 22:43:52 10° NNW
Cosmos 2123 Rocket 3.9 22:36:04 21° S 22:40:20 74° E 22:46:32 10° N
Cosmos 2061 Rocket 4.2 22:34:08 10° N 22:40:31 75° W 22:45:13 19° S
H-2A R/B 2.4 22:39:05 33° SE 22:41:16 55° ENE 22:46:33 10° N
Cosmos 220 Rocket 3.9 22:39:19 25° S 22:41:53 80° ESE 22:46:17 10° NNE
Cosmos 2173 Rocket 4.3 22:37:02 10° NNW 22:43:07 64° W 22:47:55 17° S
Cosmos 1626 3.8 22:44:38 20° ENE 22:44:38 20° ENE 22:46:38 10° NE
Meteor 2-10 4.4 22:38:45 10° N 22:44:19 58° E 22:46:32 35° SE
Cosmos 2058 3.9 22:44:53 31° E 22:44:53 31° E 22:48:29 10° NNE
Cosmos 2263 Rocket 2.3 22:46:57 35° SSE 22:48:53 50° ESE 22:54:15 10° NNE
Cosmos 1726 2.0 22:47:48 10° N 22:51:29 81° W 22:52:04 60° S
SL-14 R/B 3.3 22:53:30 44° SSW 22:54:42 78° W 22:58:39 10° N
Cosmos 1300 2.5 22:51:23 10° N 22:55:12 82° E 22:55:37 69° SSE
RESURS DK-1 2.3 22:52:02 10° NNW 22:56:13 89° NE 22:56:54 62° SSE
EO 1 Delta rocket 3.7 22:55:37 44° SSE 22:57:08 84° ENE 23:01:45 10° N
Cosmos 1328 4.2 23:02:47 39° SW 23:04:03 60° W 23:08:03 10° N
Meteor 2-2 Rocket 4.4 22:59:16 10° NNW 23:05:05 78° W 23:07:37 36° S
Cosmos 1725 Rocket 3.9 23:00:22 10° N 23:06:38 85° W 23:09:19 37° S
ERBS 3.4 23:03:32 10° NNW 23:06:28 37° NNE 23:06:28 37° NNE
deb Chang Zheng 4 4.5 23:06:14 10° NNE 23:09:31 34° ENE 23:09:31 34° ENE
Cosmos 1356 3.9 23:11:37 55° NNE 23:11:37 55° NNE 23:14:27 10° N
Cosmos 2151 2.8 23:11:00 74° SSE 23:11:18 80° E 23:15:37 10° N
Tiangong 1 3.2 23:11:17 10° NW 23:13:24 21° N 23:13:24 21° N
Cosmos 1354 Rocket 3.9 23:16:06 58° SE 23:16:39 62° ESE 23:21:49 10° NNE
Cosmos 1500 Rocket 3.8 23:18:03 51° SW 23:18:59 68° W 23:23:26 10° N
Cosmos 1603 4.1 23:15:16 10° NNW 23:20:45 53° WSW 23:22:24 39° SSW
Cosmos 1814 Rocket 4.2 23:18:29 10° NNW 23:23:46 64° WSW 23:24:55 50° SSW
DMSP B5D2-2 4.2 23:19:15 10° N 23:24:27 73° WNW 23:26:17 41° SSW
Cosmos 371 Rocket 3.5 23:20:23 10° NNW 23:25:09 62° WSW 23:25:49 55° SW
CZ-4C R/B 3.5 23:28:14 24° ENE 23:28:14 24° ENE 23:31:07 10° NE
ARGOS 4.4 23:24:14 24° SW 23:26:38 35° W 23:31:34 10° NNW
SPOT 5 4.2 23:26:16 26° SW 23:27:55 33° W 23:32:28 10° NNW
Cosmos 1455 3.5 23:24:57 10° N 23:27:33 32° NE 23:27:33 32° NE
CARTOSAT-1 3.5 23:29:27 80° NE 23:29:27 80° NE 23:33:38 10° N
Cosmos 841 Rocket 3.3 23:28:06 10° NNW 23:33:22 88° WSW 23:33:53 73° S
Lacrosse 5 2.0 23:29:23 10° NW 23:34:21 59° SW 23:34:30 58° SW
Cosmos 1763 Rocket 3.5 23:29:53 10° NNW 23:34:55 64° WSW 23:35:29 59° SW
Cosmos 1943 3.1 23:30:16 10° NNW 23:35:56 84° WSW 23:36:46 66° S
SPOT 1/Viking Rocket 4.4 23:35:09 34° SW 23:36:29 40° W 23:41:19 10° NNW
SL-19 R/B 4.1 23:31:18 10° NNE 23:36:43 87° ESE 23:37:45 61° S
Cosmos 1805 Rocket 4.3 23:39:13 42° NE 23:39:13 42° NE 23:42:24 10° NNE
Abrixas rocket 4.2 23:36:52 10° NW 23:38:41 28° NNW 23:38:41 28° NNW
IGS 5A 4.0 23:48:26 55° WNW 23:48:26 55° WNW 23:52:01 10° NNW
OAO 1 Rocket 4.5 23:45:02 10° W 23:49:48 68° WSW 23:49:48 68° WSW
H-2A R/B 2.4 23:51:01 64° NW 23:51:01 64° NW 23:54:43 10° NNW
Cosmos 1151 Rocket 3.9 23:46:29 10° NNW 23:50:35 42° W 23:50:35 42° W
SME Rocket 4.1 23:52:50 37° NE 23:52:50 37° NE 23:56:07 10° N
